Find Starlink 11673

NORAD ID: 64318 Int'l Des: 2025-124 Owner: SPXS Country: US Constellation: starlink operational
別名: STARLINK-11673 [DTC] celestrak
LEOCIRCULAR

現在のビュー

3D地球を読み込み中...

About Starlink 11673

Starlink 11673 (NORAD 64318) is a starlink constellation satellite (v2 mini d2c) launched Jun 10, 2025 by SPXS of US. It operates in LEO, CIRCULAR orbit with a mass of 960.00 kg.

次回通過

Passes for default location (London). Set your location on the main map for personalized predictions.

高度履歴

Loading altitude history...

軌道要素

1 64318U 25124B 26236.60778221 .00155085 00000-0 11848-2 0 9996
2 64318 42.9963 97.0552 0000296 88.3011 271.7890 15.70937803 69241
Epoch: Aug 24, 2026 • Age: 20 hours

現在のステータス

高度 358.4 km
遠地点 / 近地点 N/A
速度 7.70 km/s
衛星直下点 42.95°N, 39.62°E
打ち上げ日 Jun 10, 2025
運用期間 1.2 years
タイプ internet

技術仕様

分類 Payload
質量 960.00 kg
乾燥質量 910.00 kg
総質量 960.00 kg
長さ 0.30 m
直径 4.10 m
スパン 29.00 m
形状 Box + pan
製造者 SPXS
バスタイプ Starlink V2MD
フェーズステータス In Orbit
所有者/国 SPXS/US

Most Searched